N7JMV Weather Reports


time (UTC)temp
C
wind
direction
speed
KPH
gust
KPH
rain 1hr
cm
rain 24hr
cm
rain mn
cm
humidity
%
barometer
mb
20260505064006 14 151 0.0 0.0 0.00 0.00 0.00 78 1011.9
20260505063506 14 151 0.0 0.0 0.00 0.00 0.00 77 1011.8
20260505063025 14 151 0.0 0.0 0.00 0.00 0.00 77 1011.8
20260505062510 14 151 0.0 0.0 0.00 0.00 0.00 76 1011.8
20260505062010 15 151 0.0 0.0 0.00 0.00 0.00 76 1011.7
20260505061528 15 151 0.0 0.0 0.00 0.00 0.00 75 1011.7
20260505061011 15 151 0.0 0.0 0.00 0.00 0.00 74 1011.6
20260505060510 15 151 0.0 0.0 0.00 0.00 0.00 74 1011.6
20260505060032 15 151 0.0 0.0 0.00 0.00 0.00 74 1011.6
20260505055510 15 151 0.0 0.0 0.00 0.00 0.00 73 1011.5
20260505055004 15 151 0.0 0.0 0.00 0.00 0.00 72 1011.5
20260505054524 15 151 0.0 0.0 0.00 0.00 0.00 72 1011.5
20260505054006 15 151 0.0 0.0 0.00 0.00 0.00 71 1011.6
20260505053503 15 151 0.0 0.0 0.00 0.00 0.00 70 1011.6
20260505053017 15 151 0.0 0.0 0.00 0.00 0.00 71 1011.5
20260505052505 15 151 0.0 0.0 0.00 0.00 0.00 70 1011.4
20260505052011 15 151 0.0 0.0 0.00 0.00 0.00 68 1011.3
20260505051524 15 151 0.0 0.0 0.00 0.00 0.00 68 1011.3
20260505051009 15 151 0.0 0.0 0.00 0.00 0.00 68 1011.3
20260505050513 16 151 0.0 0.0 0.00 0.00 0.00 69 1011.3
20260505041520 17 151 0.0 0.0 0.00 0.00 0.00 62 1010.8
20260505041004 17 151 0.0 0.0 0.00 0.00 0.00 61 1010.8
20260505040503 18 151 0.0 0.0 0.00 0.00 0.00 61 1010.6
20260505040002 18 151 0.0 0.0 0.00 0.00 0.00 59 1010.6
20260505035505 18 151 0.0 3.2 0.00 0.00 0.00 56 1010.5
20260505035002 19 152 0.0 3.2 0.00 0.00 0.00 55 1010.4
20260505034507 19 217 0.0 4.8 0.00 0.00 0.00 54 1010.4
20260505034003 20 231 0.0 4.8 0.00 0.00 0.00 53 1010.3
20260505033503 20 212 0.0 3.2 0.00 0.00 0.00 52 1010.2
20260505033017 20 176 1.6 6.4 0.00 0.00 0.00 51 1010.2
20260505032507 20 211 0.0 6.4 0.00 0.00 0.00 49 1010.2
20260505032009 21 243 3.2 9.7 0.00 0.00 0.00 49 1010.1
20260505031514 21 270 4.8 9.7 0.00 0.00 0.00 47 1010.1
20260505031008 21 169 0.0 6.4 0.00 0.00 0.00 47 1010.0
20260505030506 22 233 1.6 6.4 0.00 0.00 0.00 46 1009.9
20260505030027 22 198 3.2 6.4 0.00 0.00 0.00 46 1009.9
20260505025506 22 139 3.2 6.4 0.00 0.00 0.00 45 1009.8
20260505025005 23 191 3.2 8.0 0.00 0.00 0.00 44 1009.8
20260505024505 23 235 3.2 8.0 0.00 0.00 0.00 43 1009.7
20260505024006 24 211 4.8 8.0 0.00 0.00 0.00 43 1009.6
20260505023502 24 224 1.6 4.8 0.00 0.00 0.00 42 1009.6
20260505023010 24 111 1.6 8.0 0.00 0.00 0.00 41 1009.6
20260505022503 25 224 4.8 8.0 0.00 0.00 0.00 40 1009.5
20260505022003 25 211 4.8 8.0 0.00 0.00 0.00 40 1009.4
20260505021512 25 210 3.2 8.0 0.00 0.00 0.00 40 1009.4
20260505021003 25 169 4.8 9.7 0.00 0.00 0.00 40 1009.4
20260505020503 25 155 4.8 9.7 0.00 0.00 0.00 40 1009.5
20260505020019 25 175 3.2 11.3 0.00 0.00 0.00 40 1009.5
20260505015506 26 93 4.8 11.3 0.00 0.00 0.00 39 1009.5
20260505015010 26 203 3.2 8.0 0.00 0.00 0.00 36 1009.5
20260505014523 26 173 1.6 8.0 0.00 0.00 0.00 34 1009.5
20260505014005 26 150 0.0 9.7 0.00 0.00 0.00 33 1009.5
20260505013506 26 68 1.6 9.7 0.00 0.00 0.00 34 1009.5
20260505013006 26 132 3.2 8.0 0.00 0.00 0.00 32 1009.6
20260505012504 26 232 1.6 12.9 0.00 0.00 0.00 34 1009.5
20260505012004 26 225 4.8 12.9 0.00 0.00 0.00 34 1009.7
20260505011508 26 206 3.2 12.9 0.00 0.00 0.00 32 1009.6
20260505011005 26 169 8.0 12.9 0.00 0.00 0.00 34 1009.6
20260505010503 26 151 3.2 11.3 0.00 0.00 0.00 33 1009.6
20260505010011 26 113 4.8 11.3 0.00 0.00 0.00 32 1009.7
20260505005507 26 153 6.4 14.5 0.00 0.00 0.00 33 1009.7
20260505005006 26 185 6.4 14.5 0.00 0.00 0.00 32 1009.7
20260505004535 26 139 3.2 11.3 0.00 0.00 0.00 33 1009.6
20260505004007 26 129 4.8 11.3 0.00 0.00 0.00 33 1009.6
20260505003510 26 135 4.8 14.5 0.00 0.00 0.00 32 1009.7
20260505003021 26 213 8.0 16.1 0.00 0.00 0.00 32 1009.7
20260505002507 26 162 6.4 16.1 0.00 0.00 0.00 33 1009.7
20260505002010 27 157 4.8 16.1 0.00 0.00 0.00 32 1009.7
20260505001528 27 117 3.2 12.9 0.00 0.00 0.00 33 1009.8
20260505001002 27 165 6.4 12.9 0.00 0.00 0.00 33 1009.7
20260505000503 27 81 4.8 12.9 0.00 0.00 0.00 35 1009.7
20260505000014 27 131 1.6 11.3 0.00 0.00 0.00 35 1009.8
20260504235504 28 151 6.4 11.3 0.00 0.00 0.00 34 1009.8
20260504235004 28 28 1.6 8.0 0.00 0.00 0.00 35 1009.8
20260504234525 27 108 1.6 8.0 0.00 0.00 0.00 34 1009.8
20260504234005 27 146 0.0 8.0 0.00 0.00 0.00 35 1009.8
20260504233505 27 144 3.2 9.7 0.00 0.00 0.00 35 1009.9
20260504233018 27 105 3.2 9.7 0.00 0.00 0.00 35 1009.9
20260504232507 28 221 1.6 6.4 0.00 0.00 0.00 34 1009.9
20260504232008 28 161 1.6 6.4 0.00 0.00 0.00 34 1009.9
20260504231537 28 244 0.0 8.0 0.00 0.00 0.00 35 1009.9
20260504231008 28 9 3.2 8.0 0.00 0.00 0.00 35 1009.8
20260504230507 28 30 1.6 4.8 0.00 0.00 0.00 35 1009.8
20260504230027 28 234 0.0 4.8 0.00 0.00 0.00 36 1009.8
20260504225518 28 39 0.0 4.8 0.00 0.00 0.00 36 1009.9
20260504225004 27 97 1.6 4.8 0.00 0.00 0.00 35 1010.0
20260504224511 28 54 1.6 8.0 0.00 0.00 0.00 34 1010.0
20260504224003 28 115 0.0 8.0 0.00 0.00 0.00 35 1010.0
20260504223504 28 195 0.0 6.4 0.00 0.00 0.00 35 1010.0
20260504223014 27 86 3.2 6.4 0.00 0.00 0.00 35 1010.0
20260504222505 28 25 1.6 6.4 0.00 0.00 0.00 34 1010.1
20260504222007 28 199 1.6 9.7 0.00 0.00 0.00 34 1010.2
20260504221518 27 139 1.6 9.7 0.00 0.00 0.00 35 1010.3
20260504221009 27 203 0.0 8.0 0.00 0.00 0.00 35 1010.3
20260504220509 28 99 1.6 6.4 0.00 0.00 0.00 34 1010.4
20260504220026 28 359 1.6 4.8 0.00 0.00 0.00 34 1010.4
20260504215507 27 64 0.0 6.4 0.00 0.00 0.00 33 1010.4
20260504215015 27 53 3.2 6.4 0.00 0.00 0.00 32 1010.4
20260504214534 27 27 0.0 9.7 0.00 0.00 0.00 33 1010.5
20260504214007 27 206 3.2 9.7 0.00 0.00 0.00 33 1010.6
20260504213514 27 153 1.6 6.4 0.00 0.00 0.00 30 1010.5
20260504213030 27 134 1.6 6.4 0.00 0.00 0.00 31 1010.6
20260504212507 27 103 0.0 8.0 0.00 0.00 0.00 31 1010.6
20260504212008 27 84 1.6 9.7 0.00 0.00 0.00 30 1010.6
20260504211516 27 62 1.6 9.7 0.00 0.00 0.00 29 1010.6
20260504211006 28 181 1.6 8.0 0.00 0.00 0.00 29 1010.7
20260504210507 28 21 1.6 8.0 0.00 0.00 0.00 28 1010.6
20260504210022 27 137 1.6 4.8 0.00 0.00 0.00 30 1010.7
20260504205507 27 262 1.6 11.3 0.00 0.00 0.00 29 1010.7
20260504205008 27 105 1.6 11.3 0.00 0.00 0.00 29 1010.7
20260504204551 27 167 1.6 6.4 0.00 0.00 0.00 31 1010.7
20260504204010 27 78 1.6 6.4 0.00 0.00 0.00 32 1010.8
20260504203513 27 160 1.6 3.2 0.00 0.00 0.00 33 1010.7
20260504203028 27 4 0.0 6.4 0.00 0.00 0.00 33 1010.7
20260504202509 27 93 1.6 9.7 0.00 0.00 0.00 33 1010.8
20260504202014 27 193 6.4 9.7 0.00 0.00 0.00 33 1010.7
20260504201527 27 128 0.0 3.2 0.00 0.00 0.00 36 1010.7
20260504201011 27 148 1.6 6.4 0.00 0.00 0.00 33 1010.8
20260504200503 27 252 0.0 6.4 0.00 0.00 0.00 34 1010.9
20260504200023 28 17 1.6 3.2 0.00 0.00 0.00 34 1010.9
20260504195509 27 146 0.0 1.6 0.00 0.00 0.00 37 1010.8
20260504195010 27 36 0.0 11.3 0.00 0.00 0.00 35 1010.8
20260504194522 26 142 1.6 11.3 0.00 0.00 0.00 34 1010.8
20260504194006 26 146 1.6 8.0 0.00 0.00 0.00 35 1010.8
20260504193506 26 77 1.6 8.0 0.00 0.00 0.00 36 1010.8
20260504193009 25 217 1.6 12.9 0.00 0.00 0.00 38 1010.8
20260504192458 25 128 6.4 12.9 0.00 0.00 0.00 36 1010.9
20260504192000 25 116 4.8 11.3 0.00 0.00 0.00 36 1011.0
20260504191502 25 155 3.2 11.3 0.00 0.00 0.00 39 1011.0
20260504191002 24 130 3.2 11.3 0.00 0.00 0.00 38 1011.1
20260504190502 24 181 6.4 11.3 0.00 0.00 0.00 39 1011.0
20260504190007 24 195 4.8 11.3 0.00 0.00 0.00 39 1011.1
20260504185502 24 159 4.8 16.1 0.00 0.00 0.00 39 1011.1
20260504185002 23 200 6.4 16.1 0.00 0.00 0.00 38 1011.2
20260504184504 23 118 4.8 16.1 0.00 0.00 0.00 38 1011.3
20260504184004 24 156 4.8 12.9 0.00 0.00 0.00 39 1011.3
20260504183502 23 169 4.8 12.9 0.00 0.00 0.00 40 1011.3
20260504183003 23 187 3.2 16.1 0.00 0.00 0.00 39 1011.3
20260504182501 23 178 6.4 16.1 0.00 0.00 0.00 39 1011.3
20260504182002 23 198 6.4 12.9 0.00 0.00 0.00 39 1011.3
20260504181503 24 153 3.2 9.7 0.00 0.00 0.00 39 1011.3
20260504181002 24 138 1.6 6.4 0.00 0.00 0.00 42 1011.2
20260504180504 24 158 0.0 3.2 0.00 0.00 0.00 44 1011.3
20260504180004 23 222 0.0 8.0 0.00 0.00 0.00 45 1011.2
20260504175502 23 228 3.2 8.0 0.00 0.00 0.00 45 1011.2
20260504175003 23 205 0.0 4.8 0.00 0.00 0.00 47 1011.3
20260504174503 23 316 1.6 4.8 0.00 0.00 0.00 46 1011.2
20260504174005 23 333 0.0 4.8 0.00 0.00 0.00 45 1011.2
20260504173502 23 152 0.0 9.7 0.00 0.00 0.00 48 1011.3
20260504173002 22 147 0.0 9.7 0.00 0.00 0.00 49 1011.3
20260504172502 22 143 3.2 9.7 0.00 0.00 0.00 48 1011.3
20260504172002 22 124 0.0 1.6 0.00 0.00 0.00 49 1011.3
20260504171507 22 351 0.0 1.6 0.00 0.00 0.00 52 1011.3
20260504171005 22 7 0.0 3.2 0.00 0.00 0.00 50 1011.3
20260504170502 21 175 0.0 6.4 0.00 0.00 0.00 50 1011.3
20260504151004 11 198 0.0 0.0 0.00 0.00 0.00 86 1010.9
20260504150503 11 198 0.0 0.0 0.00 0.00 0.00 87 1010.9
20260504141002 9 198 0.0 0.0 0.00 0.00 0.00 90 1010.7
20260504140502 9 198 0.0 0.0 0.00 0.00 0.00 90 1010.5
20260504130503 8 198 0.0 0.0 0.00 0.00 0.00 88 1010.1
20260504110502 9 198 0.0 0.0 0.00 0.00 0.00 88 1009.9
20260504100502 10 198 0.0 0.0 0.00 0.00 0.00 86 1009.6
20260504082003 10 198 0.0 0.0 0.00 0.00 0.00 83 1009.8
20260504081524 10 198 0.0 0.0 0.00 0.00 0.00 83 1009.8
20260504081007 11 198 0.0 0.0 0.00 0.00 0.00 82 1009.8
20260504080503 11 198 0.0 0.0 0.00 0.00 0.00 82 1009.9